Tracking 19199 objects as of 25-Jun-2018
HD Live streaming from Space Station
objects crossing your sky now

FENGYUN 1C DEB

Track FENGYUN 1C DEB now!
10-day predictions


NORAD ID: 38726
Int'l Code: 1999-025ETT
Perigee: 754.9 km
Apogee: 883.8 km
Inclination: 99.2 °
Period: 101.1 minutes
Semi major axis: 7190 km
RCS: 0.003 m2 (small)
Launch date: May 10, 1999
Source: People's Republic of China (PRC)
Launch site: Taiyaun Space Center, China (TSC)

Note: This is SATELLITE DEBRIS
aabbcc
Your satellite tracking list
Your tracking list is empty




NASA's NSSDC Master Catalog

Two Line Element Set (TLE):
1 38726U 99025ETT 18175.22708492  .00001046  00000-0  45821-3 0  9991
2 38726  99.2005 344.5314 0089609 185.3341 174.6890 14.23889997374698
Source of the keplerian elements: AFSPC